Time,TemperatureF,DewpointF,PressureIn,WindDirection,WindDirectionDegrees,WindSpeedMPH,WindSpeedGustMPH,Humidity,HourlyPrecipIn,Conditions,Clouds,dailyrainin,SoftwareType,DateUTC
2013-08-10 00:02:00,67.0,65.0,30.09,ENE,72,0.0,0.0,93,0.00,,,0.00,,2013-08-10 05:02:00,
2013-08-10 00:11:00,67.0,65.0,30.10,ENE,72,0.0,0.0,93,0.00,,,0.00,,2013-08-10 05:11:00,
2013-08-10 00:22:00,67.0,65.0,30.10,ENE,72,0.0,0.0,94,0.00,,,0.00,,2013-08-10 05:22:00,
2013-08-10 00:32:00,67.0,65.0,30.10,ENE,72,0.0,0.0,94,0.00,,,0.00,,2013-08-10 05:32:00,
2013-08-10 00:42:00,66.0,64.0,30.10,ENE,72,0.0,0.0,94,0.00,,,0.00,,2013-08-10 05:42:00,
2013-08-10 00:52:00,66.0,64.0,30.11,ENE,72,0.0,0.0,94,0.00,,,0.00,,2013-08-10 05:52:00,
2013-08-10 01:02:00,66.0,64.0,30.11,ENE,72,0.0,0.0,94,0.00,,,0.00,,2013-08-10 06:02:00,
2013-08-10 01:11:00,66.0,64.0,30.11,ENE,72,0.0,0.0,94,0.00,,,0.00,,2013-08-10 06:11:00,
2013-08-10 01:22:00,66.0,64.0,30.11,ENE,72,0.0,0.0,94,0.00,,,0.00,,2013-08-10 06:22:00,
2013-08-10 01:32:00,66.0,64.0,30.11,ENE,72,0.0,0.0,94,0.00,,,0.00,,2013-08-10 06:32:00,
2013-08-10 01:44:00,66.0,65.0,30.11,ENE,72,0.0,0.0,95,0.00,,,0.00,,2013-08-10 06:44:00,
2013-08-10 01:52:00,65.0,64.0,30.12,ENE,72,0.0,0.0,95,0.00,,,0.00,,2013-08-10 06:52:00,
2013-08-10 02:02:00,65.0,64.0,30.12,ENE,72,0.0,0.0,95,0.00,,,0.00,,2013-08-10 07:02:00,
2013-08-10 02:12:00,65.0,64.0,30.11,ENE,72,0.0,0.0,95,0.00,,,0.00,,2013-08-10 07:12:00,
2013-08-10 02:22:00,65.0,64.0,30.12,ENE,72,0.0,0.0,95,0.00,,,0.00,,2013-08-10 07:22:00,
2013-08-10 02:33:00,65.0,64.0,30.12,ENE,72,0.0,0.0,95,0.00,,,0.00,,2013-08-10 07:33:00,
2013-08-10 02:43:00,65.0,64.0,30.12,ENE,72,0.0,0.0,95,0.00,,,0.00,,2013-08-10 07:43:00,
2013-08-10 02:52:00,64.0,63.0,30.12,ENE,72,0.0,0.0,95,0.00,,,0.00,,2013-08-10 07:52:00,
2013-08-10 03:01:00,64.0,63.0,30.12,ENE,72,0.0,0.0,95,0.00,,,0.00,,2013-08-10 08:01:00,
2013-08-10 03:12:00,64.0,63.0,30.12,ENE,72,0.0,0.0,95,0.00,,,0.00,,2013-08-10 08:12:00,
2013-08-10 03:21:00,64.0,63.0,30.13,ENE,72,0.0,0.0,95,0.00,,,0.00,,2013-08-10 08:21:00,
2013-08-10 03:32:00,64.0,63.0,30.13,ENE,72,0.0,0.0,95,0.00,,,0.00,,2013-08-10 08:32:00,
2013-08-10 03:43:00,64.0,63.0,30.13,ENE,72,0.0,0.0,96,0.00,,,0.00,,2013-08-10 08:43:00,
2013-08-10 03:52:00,64.0,63.0,30.13,ENE,72,0.0,0.0,96,0.00,,,0.00,,2013-08-10 08:52:00,
2013-08-10 04:02:00,64.0,63.0,30.13,ENE,72,0.0,0.0,96,0.00,,,0.00,,2013-08-10 09:02:00,
2013-08-10 04:12:00,64.0,63.0,30.13,ENE,72,0.0,0.0,96,0.00,,,0.00,,2013-08-10 09:12:00,
2013-08-10 04:21:00,64.0,63.0,30.13,ENE,72,0.0,0.0,96,0.00,,,0.00,,2013-08-10 09:21:00,
2013-08-10 04:32:00,64.0,63.0,30.13,ENE,72,0.0,0.0,96,0.00,,,0.00,,2013-08-10 09:32:00,
2013-08-10 04:43:00,64.0,63.0,30.13,ENE,72,0.0,0.0,96,0.00,,,0.00,,2013-08-10 09:43:00,
2013-08-10 04:52:00,64.0,63.0,30.12,ENE,72,0.0,0.0,96,0.00,,,0.00,,2013-08-10 09:52:00,
2013-08-10 05:02:00,64.0,63.0,30.12,ENE,72,0.0,0.0,96,0.00,,,0.00,,2013-08-10 10:02:00,
2013-08-10 05:11:00,64.0,63.0,30.12,ENE,72,0.0,0.0,96,0.00,,,0.00,,2013-08-10 10:11:00,
2013-08-10 05:22:00,64.0,63.0,30.13,ENE,72,0.0,0.0,96,0.00,,,0.00,,2013-08-10 10:22:00,
2013-08-10 05:33:00,64.0,63.0,30.13,ENE,72,0.0,0.0,96,0.00,,,0.00,,2013-08-10 10:33:00,
2013-08-10 05:44:00,64.0,63.0,30.13,ENE,72,0.0,0.0,96,0.00,,,0.00,,2013-08-10 10:44:00,
2013-08-10 05:52:00,63.0,62.0,30.13,ENE,72,0.0,0.0,96,0.00,,,0.00,,2013-08-10 10:52:00,
2013-08-10 06:02:00,63.0,62.0,30.13,ENE,72,0.0,0.0,96,0.00,,,0.00,,2013-08-10 11:02:00,
2013-08-10 06:11:00,63.0,62.0,30.14,ENE,72,0.0,0.0,96,0.00,,,0.00,,2013-08-10 11:11:00,
2013-08-10 06:22:00,63.0,62.0,30.14,ENE,72,0.0,0.0,96,0.00,,,0.00,,2013-08-10 11:22:00,
2013-08-10 06:33:00,63.0,62.0,30.14,ENE,72,0.0,0.0,96,0.00,,,0.00,,2013-08-10 11:33:00,
2013-08-10 06:43:00,63.0,62.0,30.14,ENE,72,0.0,0.0,96,0.00,,,0.00,,2013-08-10 11:43:00,
2013-08-10 06:52:00,62.0,61.0,30.14,ENE,73,0.0,0.0,96,0.00,,,0.00,,2013-08-10 11:52:00,
2013-08-10 07:01:00,62.0,61.0,30.14,ENE,73,0.0,0.0,96,0.00,,,0.00,,2013-08-10 12:01:00,
2013-08-10 07:11:00,62.0,61.0,30.14,ENE,73,0.0,0.0,96,0.00,,,0.00,,2013-08-10 12:11:00,
2013-08-10 07:22:00,62.0,61.0,30.15,ENE,73,0.0,0.0,96,0.00,,,0.00,,2013-08-10 12:22:00,
2013-08-10 07:32:00,62.0,61.0,30.15,ENE,73,0.0,0.0,96,0.00,,,0.00,,2013-08-10 12:32:00,
2013-08-10 07:42:00,63.0,62.0,30.15,ENE,73,0.0,0.0,96,0.00,,,0.00,,2013-08-10 12:42:00,
2013-08-10 07:52:00,63.0,62.0,30.15,ENE,73,0.0,0.0,96,0.00,,,0.00,,2013-08-10 12:52:00,
2013-08-10 08:01:00,63.0,62.0,30.15,ENE,73,0.0,0.0,96,0.00,,,0.00,,2013-08-10 13:01:00,
2013-08-10 08:11:00,64.0,63.0,30.15,ENE,73,0.0,0.0,97,0.00,,,0.00,,2013-08-10 13:11:00,
2013-08-10 08:21:00,64.0,63.0,30.15,ENE,73,0.0,0.0,96,0.00,,,0.00,,2013-08-10 13:21:00,
2013-08-10 08:32:00,64.0,63.0,30.15,ENE,73,0.0,0.0,96,0.00,,,0.00,,2013-08-10 13:32:00,
2013-08-10 08:43:00,65.0,64.0,30.16,ENE,73,0.0,0.0,96,0.00,,,0.00,,2013-08-10 13:43:00,
2013-08-10 08:52:00,67.0,65.0,30.17,ENE,68,0.0,0.0,93,0.00,,,0.00,,2013-08-10 13:52:00,
2013-08-10 09:02:00,67.0,65.0,30.17,ENE,68,0.0,0.0,93,0.00,,,0.00,,2013-08-10 14:02:00,
2013-08-10 09:12:00,68.0,63.0,30.17,NE,34,0.0,0.0,84,0.00,,,0.00,,2013-08-10 14:12:00,
2013-08-10 09:22:00,70.0,63.0,30.18,ENE,68,0.0,0.0,79,0.00,,,0.00,,2013-08-10 14:22:00,
2013-08-10 09:32:00,70.0,63.0,30.18,ENE,68,0.0,0.0,79,0.00,,,0.00,,2013-08-10 14:32:00,
2013-08-10 09:42:00,71.0,62.0,30.19,East,92,0.0,0.0,74,0.00,,,0.00,,2013-08-10 14:42:00,
2013-08-10 09:53:00,72.0,62.0,30.19,East,97,0.0,0.0,72,0.00,,,0.00,,2013-08-10 14:53:00,
2013-08-10 10:02:00,72.0,62.0,30.19,East,97,0.0,0.0,72,0.00,,,0.00,,2013-08-10 15:02:00,
2013-08-10 10:11:00,73.0,63.0,30.18,ESE,102,0.0,0.0,70,0.00,,,0.00,,2013-08-10 15:11:00,
2013-08-10 10:22:00,74.0,63.0,30.18,SE,146,0.0,0.0,69,0.00,,,0.00,,2013-08-10 15:22:00,
2013-08-10 10:33:00,74.0,63.0,30.18,SE,146,0.0,0.0,69,0.00,,,0.00,,2013-08-10 15:33:00,
2013-08-10 10:43:00,75.0,62.0,30.18,NNE,26,0.0,0.0,65,0.00,,,0.00,,2013-08-10 15:43:00,
2013-08-10 10:52:00,75.0,61.0,30.18,NNW,335,2.0,2.0,62,0.00,,,0.00,,2013-08-10 15:52:00,
2013-08-10 11:01:00,75.0,61.0,30.18,NNW,335,2.0,2.0,62,0.00,,,0.00,,2013-08-10 16:01:00,
2013-08-10 11:11:00,76.0,62.0,30.18,ENE,68,0.0,0.0,63,0.00,,,0.00,,2013-08-10 16:11:00,
2013-08-10 11:22:00,77.0,63.0,30.18,SE,136,0.0,0.0,63,0.01,,,0.01,,2013-08-10 16:22:00,
2013-08-10 11:32:00,77.0,63.0,30.18,SE,136,0.0,0.0,63,0.01,,,0.01,,2013-08-10 16:32:00,
2013-08-10 11:43:00,77.0,61.0,30.18,ENE,69,0.0,0.0,58,0.01,,,0.01,,2013-08-10 16:43:00,
2013-08-10 11:53:00,78.0,62.0,30.19,SE,140,0.0,0.0,57,0.01,,,0.01,,2013-08-10 16:53:00,
2013-08-10 12:02:00,78.0,62.0,30.19,SE,140,0.0,0.0,57,0.01,,,0.01,,2013-08-10 17:02:00,
2013-08-10 12:12:00,79.0,61.0,30.19,East,80,0.0,0.0,55,0.01,,,0.01,,2013-08-10 17:12:00,
2013-08-10 12:22:00,79.0,63.0,30.18,SSE,167,2.0,2.0,59,0.01,,,0.01,,2013-08-10 17:22:00,
2013-08-10 12:33:00,79.0,63.0,30.18,SSE,167,2.0,2.0,59,0.01,,,0.01,,2013-08-10 17:33:00,
2013-08-10 12:43:00,79.0,63.0,30.18,South,178,0.0,0.0,59,0.00,,,0.01,,2013-08-10 17:43:00,
2013-08-10 12:52:00,80.0,61.0,30.17,South,186,5.0,5.0,53,0.00,,,0.01,,2013-08-10 17:52:00,
2013-08-10 13:01:00,80.0,61.0,30.17,South,186,5.0,5.0,53,0.00,,,0.01,,2013-08-10 18:01:00,
2013-08-10 13:11:00,80.0,60.0,30.17,ESE,105,0.0,0.0,51,0.00,,,0.01,,2013-08-10 18:11:00,
2013-08-10 13:23:00,81.0,63.0,30.17,SE,128,0.0,0.0,55,0.00,,,0.01,,2013-08-10 18:23:00,
2013-08-10 13:32:00,81.0,63.0,30.17,SE,128,0.0,0.0,55,0.00,,,0.01,,2013-08-10 18:32:00,
2013-08-10 13:44:00,81.0,61.0,30.16,NE,34,0.0,0.0,51,0.00,,,0.01,,2013-08-10 18:44:00,
2013-08-10 13:52:00,82.0,61.0,30.16,ENE,73,0.0,0.0,50,0.00,,,0.01,,2013-08-10 18:52:00,
2013-08-10 14:01:00,82.0,61.0,30.16,ENE,73,0.0,0.0,50,0.00,,,0.01,,2013-08-10 19:01:00,
2013-08-10 14:11:00,82.0,61.0,30.15,SSE,164,0.0,0.0,49,0.00,,,0.01,,2013-08-10 19:11:00,
2013-08-10 14:22:00,81.0,64.0,30.15,South,184,0.0,0.0,56,0.00,,,0.01,,2013-08-10 19:22:00,
2013-08-10 14:32:00,81.0,64.0,30.15,South,184,0.0,0.0,56,0.00,,,0.01,,2013-08-10 19:32:00,
2013-08-10 14:44:00,82.0,61.0,30.15,SSW,205,0.0,0.0,49,0.00,,,0.01,,2013-08-10 19:44:00,
2013-08-10 14:53:00,82.0,59.0,30.15,South,190,5.0,5.0,46,0.00,,,0.01,,2013-08-10 19:53:00,
2013-08-10 15:01:00,82.0,59.0,30.15,South,190,5.0,5.0,46,0.00,,,0.01,,2013-08-10 20:01:00,
2013-08-10 15:11:00,81.0,61.0,30.15,SSE,164,3.0,3.0,50,0.00,,,0.01,,2013-08-10 20:11:00,
2013-08-10 15:22:00,81.0,61.0,30.14,SSE,167,1.0,1.0,51,0.00,,,0.01,,2013-08-10 20:22:00,
2013-08-10 15:33:00,81.0,61.0,30.14,SSE,167,1.0,1.0,51,0.00,,,0.01,,2013-08-10 20:33:00,
2013-08-10 15:43:00,81.0,61.0,30.14,SSE,167,1.0,1.0,50,0.00,,,0.01,,2013-08-10 20:43:00,
2013-08-10 15:53:00,82.0,61.0,30.13,South,179,0.0,0.0,49,0.00,,,0.01,,2013-08-10 20:53:00,
2013-08-10 16:02:00,82.0,61.0,30.13,South,179,0.0,0.0,49,0.00,,,0.01,,2013-08-10 21:02:00,
2013-08-10 16:12:00,82.0,62.0,30.13,South,174,0.0,0.0,51,0.00,,,0.01,,2013-08-10 21:12:00,
2013-08-10 16:22:00,82.0,61.0,30.12,South,179,0.0,0.0,49,0.00,,,0.01,,2013-08-10 21:22:00,
2013-08-10 16:32:00,82.0,61.0,30.12,South,179,0.0,0.0,49,0.00,,,0.01,,2013-08-10 21:32:00,
2013-08-10 16:42:00,82.0,62.0,30.11,South,181,0.0,0.0,51,0.00,,,0.01,,2013-08-10 21:42:00,
2013-08-10 16:52:00,83.0,61.0,30.11,South,181,3.0,3.0,48,0.00,,,0.01,,2013-08-10 21:52:00,
2013-08-10 17:01:00,83.0,61.0,30.11,South,181,3.0,3.0,48,0.00,,,0.01,,2013-08-10 22:01:00,
2013-08-10 17:11:00,84.0,62.0,30.11,South,181,0.0,0.0,48,0.00,,,0.01,,2013-08-10 22:11:00,
2013-08-10 17:21:00,84.0,61.0,30.11,South,181,0.0,0.0,46,0.00,,,0.01,,2013-08-10 22:21:00,
2013-08-10 17:32:00,84.0,61.0,30.11,South,181,0.0,0.0,46,0.00,,,0.01,,2013-08-10 22:32:00,
2013-08-10 17:43:00,85.0,61.0,30.10,South,181,0.0,0.0,45,0.00,,,0.01,,2013-08-10 22:43:00,
2013-08-10 17:52:00,85.0,59.0,30.10,South,181,1.0,1.0,42,0.00,,,0.01,,2013-08-10 22:52:00,
2013-08-10 18:01:00,85.0,59.0,30.10,South,181,1.0,1.0,42,0.00,,,0.01,,2013-08-10 23:01:00,
2013-08-10 18:12:00,84.0,61.0,30.09,South,181,0.0,0.0,46,0.00,,,0.01,,2013-08-10 23:12:00,
2013-08-10 18:22:00,83.0,60.0,30.09,South,181,0.0,0.0,46,0.00,,,0.01,,2013-08-10 23:22:00,
2013-08-10 18:32:00,83.0,60.0,30.09,South,181,0.0,0.0,46,0.00,,,0.01,,2013-08-10 23:32:00,
2013-08-10 18:43:00,82.0,61.0,30.08,South,181,0.0,0.0,49,0.00,,,0.01,,2013-08-10 23:43:00,
2013-08-10 18:53:00,81.0,62.0,30.09,South,181,0.0,0.0,52,0.00,,,0.01,,2013-08-10 23:53:00,
2013-08-10 19:01:00,81.0,62.0,30.09,South,181,0.0,0.0,52,0.00,,,0.01,,2013-08-11 00:01:00,
2013-08-10 19:11:00,81.0,62.0,30.09,South,181,0.0,0.0,52,0.00,,,0.01,,2013-08-11 00:11:00,
2013-08-10 19:22:00,79.0,61.0,30.07,South,181,0.0,0.0,55,0.00,,,0.01,,2013-08-11 00:22:00,
2013-08-10 19:32:00,79.0,61.0,30.07,South,181,0.0,0.0,55,0.00,,,0.01,,2013-08-11 00:32:00,
2013-08-10 19:42:00,78.0,62.0,30.07,South,181,0.0,0.0,58,0.00,,,0.01,,2013-08-11 00:42:00,
2013-08-10 19:52:00,77.0,63.0,30.07,South,181,0.0,0.0,62,0.00,,,0.01,,2013-08-11 00:52:00,
2013-08-10 20:01:00,77.0,63.0,30.07,South,181,0.0,0.0,62,0.00,,,0.01,,2013-08-11 01:01:00,
2013-08-10 20:11:00,76.0,63.0,30.07,South,181,0.0,0.0,64,0.00,,,0.01,,2013-08-11 01:11:00,
2013-08-10 20:22:00,75.0,64.0,30.08,South,181,0.0,0.0,68,0.00,,,0.01,,2013-08-11 01:22:00,
2013-08-10 20:32:00,75.0,64.0,30.08,South,181,0.0,0.0,68,0.00,,,0.01,,2013-08-11 01:32:00,
2013-08-10 20:43:00,73.0,63.0,30.07,South,181,0.0,0.0,70,0.00,,,0.01,,2013-08-11 01:43:00,
2013-08-10 20:53:00,72.0,63.0,30.08,South,181,0.0,0.0,74,0.00,,,0.01,,2013-08-11 01:53:00,
2013-08-10 21:02:00,72.0,63.0,30.08,South,181,0.0,0.0,74,0.00,,,0.01,,2013-08-11 02:02:00,
2013-08-10 21:11:00,71.0,63.0,30.09,South,181,0.0,0.0,77,0.00,,,0.01,,2013-08-11 02:11:00,
2013-08-10 21:22:00,70.0,64.0,30.09,South,181,0.0,0.0,80,0.00,,,0.01,,2013-08-11 02:22:00,
2013-08-10 21:32:00,70.0,64.0,30.09,South,181,0.0,0.0,80,0.00,,,0.01,,2013-08-11 02:32:00,
2013-08-10 21:43:00,70.0,64.0,30.09,South,181,0.0,0.0,82,0.00,,,0.01,,2013-08-11 02:43:00,
2013-08-10 21:55:00,69.0,64.0,30.10,South,181,0.0,0.0,83,0.00,,,0.01,,2013-08-11 02:55:00,
2013-08-10 22:05:00,69.0,64.0,30.10,South,181,0.0,0.0,83,0.00,,,0.01,,2013-08-11 03:05:00,
2013-08-10 22:16:00,68.0,63.0,30.10,South,181,0.0,0.0,84,0.00,,,0.01,,2013-08-11 03:16:00,
2013-08-10 22:34:00,68.0,63.0,30.11,South,181,0.0,0.0,85,0.00,,,0.01,,2013-08-11 03:34:00,
2013-08-10 22:43:00,67.0,63.0,30.11,South,181,0.0,0.0,87,0.00,,,0.01,,2013-08-11 03:43:00,
2013-08-10 22:54:00,67.0,63.0,30.10,South,181,0.0,0.0,88,0.00,,,0.01,,2013-08-11 03:54:00,
2013-08-10 23:01:00,67.0,63.0,30.10,South,181,0.0,0.0,88,0.00,,,0.01,,2013-08-11 04:01:00,
2013-08-10 23:12:00,67.0,63.0,30.10,South,181,0.0,0.0,88,0.00,,,0.01,,2013-08-11 04:12:00,
2013-08-10 23:22:00,66.0,63.0,30.10,South,181,0.0,0.0,89,0.00,,,0.01,,2013-08-11 04:22:00,
2013-08-10 23:32:00,66.0,63.0,30.10,South,181,0.0,0.0,89,0.00,,,0.01,,2013-08-11 04:32:00,
2013-08-10 23:42:00,66.0,63.0,30.10,South,181,0.0,0.0,90,0.00,,,0.01,,2013-08-11 04:42:00,
2013-08-10 23:53:00,66.0,63.0,30.10,South,181,0.0,0.0,90,0.00,,,0.01,,2013-08-11 04:53:00,